Overview Statistics Trail Chart Weather Telemetry Raw packets
 

This is the latest recevied weather packets stored in our database for station/object N5JXS. If no packets are shown the sender has not sent any weather packets the latest 10 day(s).

<< 13 14 15 16 17 18 19 >>
Time Temp. Humidity Pressure Rain* Wind** Luminosity Snow
1788532842 21.11° C 36% 1025.8 hPa 0 mm - 27 W/m² -
1788532538 20.56° C 39% 1025.5 hPa 0 mm - 23 W/m² -
1788532235 20.56° C 37% 1025.7 hPa 0 mm - 23 W/m² -
1788531931 20.56° C 37% 1025.6 hPa 0 mm - 37 W/m² -
1788531626 20° C 38% 1025.6 hPa 0 mm - 19 W/m² -
1788531321 20° C 39% 1025.6 hPa 0 mm - 35 W/m² -
1788531017 19.44° C 40% 1025.3 hPa 0 mm - 34 W/m² -
1788530717 18.89° C 39% 1025.5 hPa 0 mm - 19 W/m² -
1788530417 18.89° C 40% 1025.3 hPa 0 mm - 18 W/m² -
1788530116 18.33° C 39% 1025.2 hPa 0 mm - 17 W/m² -
1788529812 17.78° C 42% 1025.1 hPa 0 mm - 16 W/m² -
1788529507 17.78° C 41% 1025.1 hPa 0 mm - 16 W/m² -
1788529201 17.78° C 40% 1025 hPa 0 mm - 15 W/m² -
1788528896 17.78° C 40% 1025.2 hPa 0 mm - 14 W/m² -
1788528592 17.78° C 40% 1024.8 hPa 0 mm - 14 W/m² -
1788528292 17.78° C 38% 1024.7 hPa 0 mm - 13 W/m² -
1788527986 17.78° C 38% 1024.7 hPa 0 mm - 12 W/m² -
1788527681 17.78° C 38% 1024.7 hPa 0 mm - 12 W/m² -
1788527377 17.22° C 39% 1024.4 hPa 0 mm - 10 W/m² -
1788527076 17.22° C 39% 1024.4 hPa 0 mm - 9 W/m² -
1788526771 17.78° C 38% 1024.4 hPa 0 mm - 9 W/m² -
1788526467 17.22° C 38% 1024.4 hPa 0 mm - 7 W/m² -
1788526167 17.22° C 38% 1024 hPa 0 mm - 6 W/m² -
1788525863 17.22° C 38% 1024.2 hPa 0 mm - 4 W/m² -
1788525559 17.22° C 38% 1024.2 hPa 0 mm - 2 W/m² -

* Rain latest hour (hover to see other rain measurements)
** Current wind speed in m/s (hover to see current wind gust speed)